Location: Moscow
(30.9132°N, 94.8252°W)
Time: 08:28:17
(UTC+00:00)

Timation 2 Rocket - Pass Details

Date: 15 November 2025
Orbit: 904 x 1074 km, 70.0° (Epoch: 13 December)

Event Time Altitude Azimuth Distance (km) Brightness Sun altitude
Rises 00:05:15 0° 202° (SSW) 3,801 7.7 -9.7°
Reaches altitude 10° 00:07:50 10° 203° (SSW) 2,866 7.0 -10.2°
Maximum altitude 00:14:37 81° 291° (WNW) 1,086 4.3 -11.6°
Drops below altitude 10° 00:21:31 10° 19° (NNE) 2,909 6.2 -13.0°
Sets 00:24:09 0° 20° (NNE) 3,861 6.8 -13.6°
